Skip Page Navigation
NASA JPL Caltech
NASA Logo - Jet Propulsion Laboratory + View the NASA Portal
+ Center for Near-Earth Object Studies
JPL Home Earth Solar System Stars & Galaxies Technology
JPL Solar System Dynamics
BODIES ORBITS EPHEMERIDES TOOLS PHYSICAL DATA DISCOVERY FAQ SITE MAP
JPL Small-Body Database Browser
Search: [ help ]  
58463 (1996 NT1)
Classification: Main-belt Asteroid          SPK-ID: 2058463
Ephemeris | Orbit Diagram | Orbital Elements | Mission Design | Physical Parameters | Discovery Circumstances | Close-Approach Data ]

[ show orbit diagram ]
Orbital Elements at Epoch 2459000.5 (2020-May-31.0) TDB
Reference: JPL 17 (heliocentric ecliptic J2000)
 Element Value Uncertainty (1-sigma)   Units 
e .1910695286144346 8.7286e-08  
a 2.533829442094083 1.8904e-08 au
q 2.049691845003791 2.2478e-07 au
i 9.218887458239866 9.2392e-06 deg
node 305.7921269139359 3.6194e-05 deg
peri 11.43615582836086 4.17e-05 deg
M 316.0730217953623 2.887e-05 deg
tp 2459180.260108668590
(2020-Nov-26.76010867)
0.00011891 TDB
period 1473.209443618413
4.03
1.6486e-05
4.514e-08
d
yr
n .2443644395299209 2.7346e-09 deg/d
Q 3.017967039184375 2.2515e-08 au
  Orbit Determination Parameters
   # obs. used (total)      392  
   data-arc span      8773 days (24.02 yr)  
   first obs. used      1996-07-14  
   last obs. used      2020-07-21  
   planetary ephem.      DE431  
   SB-pert. ephem.      SB431-N16  
   condition code      0  
   norm. resid. RMS      .56797  
   source      ORB  
   producer      Otto Matic  
   solution date      2020-Nov-12 22:51:00  

Additional Information
 Earth MOID = 1.03692 au 
 Jupiter MOID = 2.28178 au 
 T_jup = 3.406 
[ show covariance matrix ]

Ephemeris | Orbit Diagram | Orbital Elements | Mission Design | Physical Parameters | Discovery Circumstances | Close-Approach Data ]

Physical Parameter Table
Parameter Symbol Value Units Sigma Reference Notes
absolute magnitude H 15.22   n/a E2021B10  

58463 (1996 NT1)          Discovered 1996-Jul-14 by NEAT at Haleakala
Reference: 20030614/Numbers.arcLast Updated: 2004-04-19

[ show close-approach data ]
Alternate Designations
 1996 NT1 = 2000 OS23 
Ephemeris | Orbit Diagram | Orbital Elements | Mission Design | Physical Parameters | Discovery Circumstances | Close-Approach Data ]
ABOUT SSD CREDITS/AWARDS PRIVACY/COPYRIGHT GLOSSARY LINKS
FirstGov 2021-Feb-27 05:19 UT
(server date/time)  
NASA Home Page
Site Manager:   Ryan S. Park
Webmaster  Alan B. Chamberlin